User: anonymous   Login
Location: ???????
(55.4362°N, 38.1183°E)
Time: 18:02:53
(UTC+00:00)
Language:

AO-91 - Orbit

View from above orbital plane
View from above orbital plane
View from above satellite
View from above satellite

Ground track
Ground track

The orbit data is extracted from the following two-line orbital elements,

1 43017U 17073E   21340.49625290  .00001017  00000-0  81965-4 0  9992
2 43017  97.6925 237.5425 0254874  98.7383 264.2785 14.79991489218568
Epoch (UTC): 06 December 2021 11:54:36
Eccentricity: 0.0254874
inclination: 97.6925°
perigee height: 451 km
apogee height: 808 km
right ascension of ascending node: 237.5425°
argument of perigee: 98.7383°
revolutions per day: 14.79991489
mean anomaly at epoch: 264.2785°
orbit number at epoch: 21856

The dashed part of the orbit path shows where the satellite is in the earth's shadow,  

DLR